Time,TemperatureF,DewpointF,PressureIn,WindDirection,WindDirectionDegrees,WindSpeedMPH,WindSpeedGustMPH,Humidity,HourlyPrecipIn,Conditions,Clouds,dailyrainin,SoftwareType,DateUTC
2013-03-29 00:03:00,40.2,35.0,30.00,West,270,0.0,1.0,80,0.00,,,0.01,weatherlink.com 1.10,2013-03-29 04:03:00,
2013-03-29 00:18:00,40.2,35.0,30.00,West,270,0.0,1.0,80,0.00,,,0.01,weatherlink.com 1.10,2013-03-29 04:18:00,
2013-03-29 00:33:00,40.4,35.0,30.00,West,270,0.0,1.0,80,0.00,,,0.00,weatherlink.com 1.10,2013-03-29 04:33:00,
2013-03-29 00:48:00,40.4,35.0,30.00,West,270,0.0,1.0,80,0.00,,,0.00,weatherlink.com 1.10,2013-03-29 04:48:00,
2013-03-29 01:03:00,40.5,34.0,30.00,West,269,0.0,3.0,79,0.00,,,0.00,weatherlink.com 1.10,2013-03-29 05:03:00,
2013-03-29 01:18:00,40.6,35.0,30.00,West,269,0.0,1.0,79,0.00,,,0.00,weatherlink.com 1.10,2013-03-29 05:18:00,
2013-03-29 01:33:00,40.6,35.0,30.00,West,269,0.0,0.0,79,0.00,,,0.00,weatherlink.com 1.10,2013-03-29 05:33:00,
2013-03-29 01:48:00,40.7,35.0,30.01,West,269,0.0,1.0,79,0.00,,,0.00,weatherlink.com 1.10,2013-03-29 05:48:00,
2013-03-29 02:03:00,40.7,35.0,30.00,West,269,0.0,0.0,79,0.00,,,0.00,weatherlink.com 1.10,2013-03-29 06:03:00,
2013-03-29 02:20:00,40.6,35.0,30.00,West,269,0.0,0.0,80,0.00,,,0.00,weatherlink.com 1.10,2013-03-29 06:20:00,
2013-03-29 02:33:00,40.4,34.0,30.00,West,269,0.0,0.0,79,0.00,,,0.00,weatherlink.com 1.10,2013-03-29 06:33:00,
2013-03-29 02:49:00,40.0,34.0,30.00,West,269,1.0,1.0,79,0.00,,,0.00,weatherlink.com 1.10,2013-03-29 06:49:00,
2013-03-29 03:04:00,39.5,34.0,30.00,West,269,0.0,0.0,80,0.00,,,0.00,weatherlink.com 1.10,2013-03-29 07:04:00,
2013-03-29 03:19:00,39.0,33.0,30.00,West,269,0.0,0.0,80,0.00,,,0.00,weatherlink.com 1.10,2013-03-29 07:19:00,
2013-03-29 03:34:00,38.7,33.0,30.00,West,269,0.0,0.0,81,0.00,,,0.00,weatherlink.com 1.10,2013-03-29 07:34:00,
2013-03-29 03:49:00,38.3,33.0,30.00,West,269,0.0,0.0,81,0.00,,,0.00,weatherlink.com 1.10,2013-03-29 07:49:00,
2013-03-29 04:04:00,37.9,33.0,30.00,West,269,0.0,0.0,82,0.00,,,0.00,weatherlink.com 1.10,2013-03-29 08:04:00,
2013-03-29 04:19:00,37.8,33.0,30.00,West,269,0.0,1.0,82,0.00,,,0.00,weatherlink.com 1.10,2013-03-29 08:19:00,
2013-03-29 04:34:00,37.7,33.0,30.00,West,269,0.0,0.0,82,0.00,,,0.00,weatherlink.com 1.10,2013-03-29 08:34:00,
2013-03-29 04:49:00,37.8,32.0,30.00,West,269,0.0,1.0,81,0.00,,,0.00,weatherlink.com 1.10,2013-03-29 08:49:00,
2013-03-29 05:04:00,37.7,33.0,30.00,West,269,0.0,1.0,82,0.00,,,0.00,weatherlink.com 1.10,2013-03-29 09:04:00,
2013-03-29 05:19:00,37.8,32.0,30.00,WNW,284,0.0,1.0,81,0.00,,,0.00,weatherlink.com 1.10,2013-03-29 09:19:00,
2013-03-29 05:34:00,37.7,33.0,30.00,NW,306,0.0,2.0,82,0.00,,,0.00,weatherlink.com 1.10,2013-03-29 09:34:00,
2013-03-29 05:49:00,37.8,32.0,30.00,NNW,328,0.0,2.0,81,0.00,,,0.00,weatherlink.com 1.10,2013-03-29 09:49:00,
2013-03-29 06:04:00,37.7,32.0,30.00,NNW,328,0.0,1.0,81,0.00,,,0.00,weatherlink.com 1.10,2013-03-29 10:04:00,
2013-03-29 06:19:00,37.4,32.0,30.01,NW,324,0.0,2.0,82,0.00,,,0.00,weatherlink.com 1.10,2013-03-29 10:19:00,
2013-03-29 06:34:00,37.4,32.0,30.01,NW,324,0.0,3.0,82,0.00,,,0.00,weatherlink.com 1.10,2013-03-29 10:34:00,
2013-03-29 06:50:00,37.5,33.0,30.01,NW,324,0.0,4.0,82,0.00,,,0.00,weatherlink.com 1.10,2013-03-29 10:50:00,
2013-03-29 07:04:00,37.9,33.0,30.02,NW,324,0.0,2.0,82,0.00,,,0.00,weatherlink.com 1.10,2013-03-29 11:04:00,
2013-03-29 07:19:00,38.5,33.0,30.02,NW,307,0.0,3.0,82,0.00,,,0.00,weatherlink.com 1.10,2013-03-29 11:19:00,
2013-03-29 07:34:00,39.5,34.0,30.02,NW,316,4.0,4.0,80,0.00,,,0.00,weatherlink.com 1.10,2013-03-29 11:34:00,
2013-03-29 07:49:00,40.8,34.0,30.02,NW,320,0.0,4.0,78,0.00,,,0.00,weatherlink.com 1.10,2013-03-29 11:49:00,
2013-03-29 08:04:00,42.4,35.0,30.02,WNW,300,0.0,5.0,75,0.00,,,0.00,weatherlink.com 1.10,2013-03-29 12:04:00,
2013-03-29 08:19:00,44.0,35.0,30.03,NW,322,0.0,8.0,72,0.00,,,0.00,weatherlink.com 1.10,2013-03-29 12:19:00,
2013-03-29 08:34:00,45.2,36.0,30.03,North,1,0.0,6.0,70,0.00,,,0.00,weatherlink.com 1.10,2013-03-29 12:34:00,
2013-03-29 08:49:00,46.6,36.0,30.03,NNW,328,0.0,6.0,66,0.00,,,0.00,weatherlink.com 1.10,2013-03-29 12:49:00,
2013-03-29 09:19:00,49.1,36.0,30.02,WNW,295,2.0,7.0,61,0.00,,,0.00,weatherlink.com 1.10,2013-03-29 13:19:00,
2013-03-29 09:34:00,50.0,36.0,30.02,West,272,3.0,6.0,60,0.00,,,0.00,weatherlink.com 1.10,2013-03-29 13:34:00,
2013-03-29 09:49:00,50.8,36.0,30.02,West,277,0.0,9.0,58,0.00,,,0.00,weatherlink.com 1.10,2013-03-29 13:49:00,
2013-03-29 10:04:00,51.7,38.0,30.02,NNW,331,1.0,5.0,59,0.00,,,0.00,weatherlink.com 1.10,2013-03-29 14:04:00,
2013-03-29 10:20:00,53.9,37.0,30.02,WNW,300,1.0,4.0,54,0.00,,,0.00,weatherlink.com 1.10,2013-03-29 14:20:00,
2013-03-29 10:35:00,54.2,37.0,30.02,West,271,0.0,6.0,53,0.00,,,0.00,weatherlink.com 1.10,2013-03-29 14:35:00,
2013-03-29 10:50:00,54.6,37.0,30.02,NW,304,0.0,8.0,52,0.00,,,0.00,weatherlink.com 1.10,2013-03-29 14:50:00,
2013-03-29 11:05:00,55.3,37.0,30.02,NW,309,0.0,11.0,51,0.00,,,0.00,weatherlink.com 1.10,2013-03-29 15:05:00,
2013-03-29 11:20:00,56.0,37.0,30.02,NNW,327,2.0,8.0,49,0.00,,,0.00,weatherlink.com 1.10,2013-03-29 15:20:00,
2013-03-29 11:35:00,56.5,37.0,30.01,NNW,342,0.0,5.0,48,0.00,,,0.00,weatherlink.com 1.10,2013-03-29 15:35:00,
2013-03-29 11:50:00,57.6,36.0,30.00,WNW,283,5.0,6.0,45,0.00,,,0.00,weatherlink.com 1.10,2013-03-29 15:50:00,
2013-03-29 12:05:00,56.6,35.0,30.00,NW,305,0.0,4.0,45,0.00,,,0.00,weatherlink.com 1.10,2013-03-29 16:05:00,
2013-03-29 12:20:00,57.6,37.0,30.00,North,355,0.0,7.0,46,0.00,,,0.00,weatherlink.com 1.10,2013-03-29 16:20:00,
2013-03-29 12:35:00,55.5,32.0,30.00,West,261,6.0,11.0,41,0.00,,,0.00,weatherlink.com 1.10,2013-03-29 16:35:00,
2013-03-29 12:50:00,55.0,34.0,29.99,NNW,342,1.0,5.0,45,0.00,,,0.00,weatherlink.com 1.10,2013-03-29 16:50:00,
2013-03-29 13:05:00,54.7,34.0,29.99,North,355,0.0,3.0,45,0.00,,,0.00,weatherlink.com 1.10,2013-03-29 17:05:00,
2013-03-29 13:20:00,54.7,33.0,29.98,NW,312,0.0,3.0,44,0.00,,,0.00,weatherlink.com 1.10,2013-03-29 17:20:00,
2013-03-29 13:35:00,55.0,33.0,29.98,NW,320,3.0,4.0,43,0.00,,,0.00,weatherlink.com 1.10,2013-03-29 17:35:00,
2013-03-29 13:50:00,55.0,34.0,29.98,WNW,300,1.0,5.0,45,0.00,,,0.00,weatherlink.com 1.10,2013-03-29 17:50:00,
2013-03-29 14:05:00,53.8,35.0,29.98,NNW,342,2.0,8.0,49,0.00,,,0.00,weatherlink.com 1.10,2013-03-29 18:05:00,
2013-03-29 14:20:00,53.2,35.0,29.98,NNE,28,0.0,4.0,50,0.00,,,0.00,weatherlink.com 1.10,2013-03-29 18:20:00,
2013-03-29 14:35:00,53.3,34.0,29.98,NW,326,0.0,4.0,48,0.00,,,0.00,weatherlink.com 1.10,2013-03-29 18:35:00,
2013-03-29 14:50:00,53.5,33.0,29.98,NW,309,0.0,6.0,46,0.00,,,0.00,weatherlink.com 1.10,2013-03-29 18:50:00,
2013-03-29 15:05:00,53.1,34.0,29.98,WNW,300,3.0,6.0,48,0.00,,,0.00,weatherlink.com 1.10,2013-03-29 19:05:00,
2013-03-29 15:20:00,50.8,37.0,29.98,SSW,202,4.0,8.0,59,0.00,,,0.00,weatherlink.com 1.10,2013-03-29 19:20:00,
2013-03-29 15:35:00,49.1,38.0,29.98,WSW,241,1.0,5.0,65,0.01,,,0.01,weatherlink.com 1.10,2013-03-29 19:35:00,
2013-03-29 15:50:00,49.9,37.0,29.97,SSW,212,3.0,7.0,62,0.01,,,0.01,weatherlink.com 1.10,2013-03-29 19:50:00,
2013-03-29 16:05:00,51.7,38.0,29.97,SSE,165,3.0,7.0,59,0.01,,,0.01,weatherlink.com 1.10,2013-03-29 20:05:00,
2013-03-29 16:20:00,53.3,36.0,29.96,SSW,196,1.0,11.0,53,0.01,,,0.01,weatherlink.com 1.10,2013-03-29 20:20:00,
2013-03-29 16:35:00,53.3,36.0,29.96,SW,218,3.0,10.0,52,0.00,,,0.01,weatherlink.com 1.10,2013-03-29 20:35:00,
2013-03-29 16:50:00,53.0,36.0,29.96,SSE,153,5.0,8.0,53,0.00,,,0.01,weatherlink.com 1.10,2013-03-29 20:50:00,
2013-03-29 17:05:00,53.3,36.0,29.96,South,182,1.0,8.0,52,0.00,,,0.01,weatherlink.com 1.10,2013-03-29 21:05:00,
2013-03-29 17:20:00,53.0,36.0,29.96,South,186,0.0,5.0,53,0.00,,,0.01,weatherlink.com 1.10,2013-03-29 21:20:00,
2013-03-29 17:35:00,51.5,36.0,29.97,SSW,212,0.0,6.0,55,0.00,,,0.01,weatherlink.com 1.10,2013-03-29 21:35:00,
2013-03-29 17:50:00,50.3,36.0,29.97,SSW,205,0.0,3.0,58,0.00,,,0.01,weatherlink.com 1.10,2013-03-29 21:50:00,
2013-03-29 18:05:00,49.7,35.0,29.97,WSW,238,0.0,4.0,58,0.00,,,0.01,weatherlink.com 1.10,2013-03-29 22:05:00,
2013-03-29 18:20:00,49.3,35.0,29.97,WNW,286,0.0,2.0,58,0.00,,,0.01,weatherlink.com 1.10,2013-03-29 22:20:00,
2013-03-29 18:35:00,48.8,36.0,29.97,SW,233,0.0,1.0,61,0.00,,,0.01,weatherlink.com 1.10,2013-03-29 22:35:00,
2013-03-29 18:50:00,48.0,37.0,29.97,SW,219,1.0,3.0,65,0.00,,,0.01,weatherlink.com 1.10,2013-03-29 22:50:00,
2013-03-29 19:05:00,47.4,36.0,29.97,SW,219,0.0,0.0,66,0.00,,,0.01,weatherlink.com 1.10,2013-03-29 23:05:00,
2013-03-29 19:20:00,47.0,36.0,29.97,SW,219,0.0,0.0,67,0.00,,,0.01,weatherlink.com 1.10,2013-03-29 23:20:00,
2013-03-29 19:35:00,46.9,37.0,29.98,SW,219,0.0,1.0,68,0.00,,,0.01,weatherlink.com 1.10,2013-03-29 23:35:00,
2013-03-29 19:50:00,47.3,36.0,29.98,WSW,250,0.0,4.0,65,0.00,,,0.01,weatherlink.com 1.10,2013-03-29 23:50:00,
2013-03-29 20:05:00,48.4,34.0,29.98,WNW,290,0.0,6.0,59,0.00,,,0.01,weatherlink.com 1.10,2013-03-30 00:05:00,
2013-03-29 20:20:00,49.5,33.0,29.99,WSW,255,0.0,6.0,54,0.00,,,0.01,weatherlink.com 1.10,2013-03-30 00:20:00,
2013-03-29 20:35:00,49.9,35.0,29.99,NNE,17,0.0,4.0,56,0.00,,,0.01,weatherlink.com 1.10,2013-03-30 00:35:00,
2013-03-29 20:50:00,49.4,34.0,29.99,NNW,347,0.0,2.0,55,0.00,,,0.01,weatherlink.com 1.10,2013-03-30 00:50:00,
2013-03-29 21:05:00,48.8,34.0,30.00,NNW,347,0.0,0.0,56,0.00,,,0.01,weatherlink.com 1.10,2013-03-30 01:05:00,
2013-03-29 21:20:00,48.0,34.0,30.00,NNW,347,0.0,0.0,59,0.00,,,0.01,weatherlink.com 1.10,2013-03-30 01:20:00,
2013-03-29 21:35:00,47.0,34.0,30.01,NNW,347,0.0,0.0,60,0.00,,,0.01,weatherlink.com 1.10,2013-03-30 01:35:00,
2013-03-29 21:50:00,46.8,33.0,30.01,NNW,345,1.0,5.0,58,0.00,,,0.01,weatherlink.com 1.10,2013-03-30 01:50:00,
2013-03-29 22:05:00,47.7,32.0,30.01,NW,320,1.0,5.0,55,0.00,,,0.01,weatherlink.com 1.10,2013-03-30 02:05:00,
2013-03-29 22:20:00,47.8,31.0,30.01,NW,310,0.0,11.0,53,0.00,,,0.01,weatherlink.com 1.10,2013-03-30 02:20:00,
2013-03-29 22:35:00,47.6,31.0,30.02,NW,314,2.0,5.0,54,0.00,,,0.01,weatherlink.com 1.10,2013-03-30 02:35:00,
2013-03-29 22:50:00,47.1,32.0,30.02,NNW,343,0.0,5.0,56,0.00,,,0.01,weatherlink.com 1.10,2013-03-30 02:50:00,
2013-03-29 23:05:00,46.6,32.0,30.02,WNW,303,0.0,7.0,57,0.00,,,0.01,weatherlink.com 1.10,2013-03-30 03:05:00,
2013-03-29 23:20:00,46.3,32.0,30.02,NNW,338,0.0,5.0,57,0.00,,,0.01,weatherlink.com 1.10,2013-03-30 03:20:00,
2013-03-29 23:35:00,46.0,32.0,30.02,NW,326,0.0,3.0,58,0.00,,,0.01,weatherlink.com 1.10,2013-03-30 03:35:00,
2013-03-29 23:50:00,45.6,32.0,30.02,NW,308,0.0,4.0,60,0.00,,,0.01,weatherlink.com 1.10,2013-03-30 03:50:00,